TimeEDT,TemperatureF,Dew PointF,Humidity,Sea Level PressureIn,VisibilityMPH,Wind Direction,Wind SpeedMPH,Gust SpeedMPH,PrecipitationIn,Events,Conditions,WindDirDegrees,DateUTC
12:52 AM,73.0,71.1,93,29.85,7.0,SSE,4.6,-,N/A,,Overcast,150,2013-09-02 04:52:00
1:01 AM,73.4,71.6,94,29.85,9.0,SSE,5.8,-,N/A,,Overcast,160,2013-09-02 05:01:00
1:14 AM,73.4,71.6,94,29.85,8.0,SSE,4.6,-,N/A,,Overcast,160,2013-09-02 05:14:00
1:52 AM,73.0,71.1,93,29.84,6.0,SSE,3.5,-,N/A,,Overcast,160,2013-09-02 05:52:00
2:52 AM,73.0,71.1,93,29.83,3.0,South,4.6,-,N/A,,Overcast,180,2013-09-02 06:52:00
3:33 AM,73.4,71.6,94,29.82,8.0,SSE,3.5,-,0.01,,Overcast,160,2013-09-02 07:33:00
3:37 AM,73.4,71.6,94,29.83,7.0,SSE,4.6,-,0.01,Thunderstorm,Overcast,160,2013-09-02 07:37:00
3:52 AM,73.0,71.1,93,29.81,7.0,Variable,3.5,-,0.01,Thunderstorm,Thunderstorm,0,2013-09-02 07:52:00
4:07 AM,73.4,71.6,94,29.81,4.0,SSE,3.5,-,0.03,Rain,Heavy Rain,160,2013-09-02 08:07:00
4:43 AM,73.4,71.6,94,29.82,8.0,SSW,3.5,-,0.03,,Mostly Cloudy,200,2013-09-02 08:43:00
4:52 AM,73.0,71.1,93,29.81,7.0,Calm,Calm,-,0.03,,Mostly Cloudy,0,2013-09-02 08:52:00
5:18 AM,73.4,71.6,94,29.83,4.0,South,3.5,-,0.03,Rain-Thunderstorm,Light Rain,180,2013-09-02 09:18:00
5:27 AM,73.4,71.6,94,29.83,4.0,Calm,Calm,-,0.04,Rain-Thunderstorm,Light Rain,0,2013-09-02 09:27:00
5:50 AM,73.4,71.6,94,29.81,7.0,SSE,5.8,-,0.06,Rain-Thunderstorm,Light Rain,160,2013-09-02 09:50:00
5:52 AM,73.0,70.0,90,29.81,7.0,SE,3.5,-,0.06,Rain-Thunderstorm,Light Rain,140,2013-09-02 09:52:00
6:11 AM,73.4,69.8,88,29.83,10.0,Calm,Calm,-,0.01,Rain,Light Rain,0,2013-09-02 10:11:00
6:41 AM,71.6,69.8,94,29.83,10.0,Calm,Calm,-,0.01,,Mostly Cloudy,0,2013-09-02 10:41:00
6:49 AM,71.6,71.6,100,29.83,10.0,Calm,Calm,-,0.01,,Overcast,0,2013-09-02 10:49:00
6:52 AM,72.0,71.1,97,29.82,10.0,Calm,Calm,-,0.01,,Overcast,0,2013-09-02 10:52:00
7:37 AM,73.4,69.8,88,29.82,10.0,Calm,Calm,-,0.01,,Mostly Cloudy,0,2013-09-02 11:37:00
7:52 AM,73.0,71.1,93,29.82,10.0,Calm,Calm,-,0.01,,Mostly Cloudy,0,2013-09-02 11:52:00
8:01 AM,73.4,71.6,94,29.83,10.0,Calm,Calm,-,N/A,,Mostly Cloudy,0,2013-09-02 12:01:00
8:52 AM,73.0,71.1,93,29.82,10.0,SE,3.5,-,N/A,,Overcast,130,2013-09-02 12:52:00
9:52 AM,73.9,72.0,93,29.82,9.0,South,4.6,-,N/A,,Overcast,190,2013-09-02 13:52:00
10:52 AM,75.0,72.0,90,29.81,8.0,South,8.1,-,N/A,,Overcast,170,2013-09-02 14:52:00
11:35 AM,77.0,73.4,89,29.81,10.0,SSW,6.9,-,N/A,,Overcast,200,2013-09-02 15:35:00
11:47 AM,78.8,73.4,83,29.81,9.0,SSW,8.1,-,N/A,,Overcast,200,2013-09-02 15:47:00
11:52 AM,77.0,72.0,84,29.81,9.0,South,5.8,-,N/A,,Overcast,190,2013-09-02 15:52:00
12:13 PM,78.8,71.6,78,29.80,10.0,South,8.1,-,N/A,Thunderstorm,Overcast,180,2013-09-02 16:13:00
12:44 PM,75.2,69.8,83,29.81,1.2,West,15.0,25.3,0.13,Rain-Thunderstorm,Heavy Thunderstorms and Rain,280,2013-09-02 16:44:00
12:52 PM,70.0,68.0,93,29.78,0.5,NNE,9.2,25.3,0.37,Fog-Rain-Thunderstorm,Heavy Rain,20,2013-09-02 16:52:00
12:57 PM,71.6,68.0,88,29.80,1.0,Variable,4.6,-,0.00,Rain-Thunderstorm,Rain,0,2013-09-02 16:57:00
1:00 PM,71.6,68.0,88,29.80,3.0,SW,6.9,-,0.00,Rain-Thunderstorm,Light Rain,220,2013-09-02 17:00:00
1:13 PM,73.4,69.8,88,29.79,10.0,Calm,Calm,-,0.00,,Mostly Cloudy,0,2013-09-02 17:13:00
1:52 PM,75.9,69.1,79,29.78,10.0,SSE,5.8,-,0.00,,Scattered Clouds,160,2013-09-02 17:52:00
2:52 PM,77.0,66.9,71,29.77,10.0,South,8.1,-,N/A,,Scattered Clouds,170,2013-09-02 18:52:00
3:30 PM,77.0,68.0,74,29.78,10.0,South,4.6,-,N/A,,Mostly Cloudy,180,2013-09-02 19:30:00
3:50 PM,75.2,71.6,89,29.77,10.0,South,5.8,-,0.00,,Overcast,180,2013-09-02 19:50:00
3:52 PM,75.9,71.1,85,29.77,10.0,South,4.6,-,0.00,,Overcast,180,2013-09-02 19:52:00
4:52 PM,75.9,72.0,87,29.73,9.0,Variable,4.6,-,N/A,,Overcast,0,2013-09-02 20:52:00
5:28 PM,77.0,71.6,83,29.73,8.0,SSW,5.8,-,N/A,,Scattered Clouds,200,2013-09-02 21:28:00
5:48 PM,77.0,71.6,83,29.72,8.0,South,3.5,-,N/A,,Mostly Cloudy,180,2013-09-02 21:48:00
5:52 PM,77.0,72.0,84,29.72,8.0,South,3.5,-,N/A,,Mostly Cloudy,180,2013-09-02 21:52:00
6:44 PM,77.0,71.6,83,29.73,7.0,South,4.6,-,N/A,,Overcast,190,2013-09-02 22:44:00
6:52 PM,75.9,72.0,87,29.73,7.0,South,6.9,-,N/A,,Overcast,190,2013-09-02 22:52:00
7:52 PM,75.9,72.0,87,29.72,8.0,SSE,3.5,-,N/A,,Overcast,150,2013-09-02 23:52:00
8:06 PM,75.2,71.6,89,29.72,7.0,SSE,4.6,-,N/A,,Overcast,160,2013-09-03 00:06:00
8:52 PM,73.9,72.0,93,29.74,6.0,Calm,Calm,-,N/A,,Mostly Cloudy,0,2013-09-03 00:52:00
9:52 PM,73.9,72.0,93,29.75,6.0,Calm,Calm,-,N/A,,Overcast,0,2013-09-03 01:52:00
10:09 PM,73.4,71.6,94,29.76,7.0,South,3.5,-,N/A,,Overcast,180,2013-09-03 02:09:00
10:52 PM,73.9,71.1,91,29.76,6.0,Calm,Calm,-,N/A,,Overcast,0,2013-09-03 02:52:00
11:04 PM,73.4,71.6,94,29.76,6.0,Calm,Calm,-,N/A,,Mostly Cloudy,0,2013-09-03 03:04:00
11:52 PM,72.0,71.1,97,29.77,4.0,Calm,Calm,-,N/A,,Mostly Cloudy,0,2013-09-03 03:52:00